Regional Weather Roundup
Issued by NWS

Home | Current Version | Previous Version | Graphics & Text | Print | Product List | Glossary On
Versions: 1 2 3 4 5 6 7 8 9 10 11 12 13 14 15 16 17 18 19 20 21 22 23 24 25 26 27 28 29 30 31 32 33 34 35 36 37 38 39 40 41 42 43 44 45 46 47 48 49 50
000
ASUS43 KDMX 040707
RWRIA

WEATHER ROUNDUP FOR IOWA
NATIONAL WEATHER SERVICE DES MOINES IA
200 AM CDT MON MAY 04 2015

NOTE: "FAIR" INDICATES FEW OR NO CLOUDS BELOW 12,000 FEET WITH NO
SIGNIFICANT WEATHER AND/OR OBSTRUCTIONS TO VISIBILITY.

* - THESE STATIONS ARE NOT NWS STATIONS...THUS NOT UNDER NWS
QUALITY CONTROL.  THEY ALSO DO NOT REPORT WEATHER SUCH
AS PRECIPITATION OR FOG.

IAZ001>003-012>014-020>022-031>034-043>046-040800-
   NORTHWEST IOWA

CITY           SKY/WX    TMP DP  RH WIND       PRES   REMARKS
CARROLL *      PTCLDY    61  54  77 N14G22    29.93R
CHEROKEE *     CLOUDY    61  43  51 N10G18    29.96S
DENISON *      PTCLDY    61  52  72 NE14G21   29.90S
LE MARS *      MOCLDY    59  39  47 N12       29.98F
ORANGE CITY *  CLEAR     55  32  41 N9        29.99S
SHELDON *      CLEAR     52  34  50 N12       29.99F
SIOUX CITY     CLOUDY    63  41  44 N9        29.97R
SPENCER        MOCLDY    56  42  59 N14       29.98S
STORM LAKE *   CLEAR     59  46  63 N16G23    29.95F
$$

IAZ055>058-069>071-079>083-090>094-040800-
   SOUTHWEST IOWA

CITY           SKY/WX    TMP DP  RH WIND       PRES   REMARKS
ATLANTIC *     MOCLDY    63  59  88 N7        29.90S
AUDUBON *      CLEAR     63  57  82 N9        29.93S
CLARINDA *     LGT RAIN  66  59  77 S3        29.91R
COUNCIL BLFS * CLEAR     64  57  77 N6        29.93R
CRESTON *      PTCLDY    66  54  63 N6G18     29.91R
HARLAN  *      MOCLDY    63  63 100 N13       29.94F
LAMONI         CLOUDY    68  56  65 W15G23    29.89F
RED OAK *      CLOUDY    66  57  72 NW9       29.90S
SHENANDOAH *   LGT RAIN  64  59  82 S28       29.84F
$$

IAZ047>049-059>061-072>074-084-040800-
   CENTRAL IOWA

CITY           SKY/WX    TMP DP  RH WIND       PRES   REMARKS
AMES           CLOUDY    65  54  67 E9        29.89R
ANKENY *       CLEAR     63  57  82 N8        29.88R
CHARITON *     CLOUDY    68  59  73 SW9       29.87S
DES MOINES     CLOUDY    68  55  63 SW7       29.86S
GRINNELL*      CLOUDY    61  55  82 E12       29.90R
KNOXVILLE *    CLOUDY    68  59  73 CALM      29.87R
MARSHALLTOWN   CLOUDY    62  55  77 NE12      29.91R
PELLA *        CLOUDY    68  61  77 SE8       29.89S
PERRY *        MOCLDY    64  54  68 N7        29.91R
$$

IAZ004>006-015-016-023>025-035-036-040800-
   NORTH CENTRAL IOWA

CITY           SKY/WX    TMP DP  RH WIND       PRES   REMARKS
ALGONA *       PTCLDY    57  50  77 N10       29.95S
CLARION *      LGT RAIN  59  59 100 N7G15     29.94R
ESTHERVILLE    CLOUDY    57  41  55 N14       29.97S
FORT DODGE *   CLOUDY    59  54  82 NW7       29.95R
MASON CITY     CLOUDY    57  55  93 N10       29.94R
FOREST CITY *  CLEAR     54  50  87 N8        29.94S
IOWA FALLS *   RAIN      61  57  88 E12       29.93R
$$

IAZ007>011-017>019-026>030-037>042-050>054-066-040800-
   NORTHEAST IOWA

CITY           SKY/WX    TMP DP  RH WIND       PRES   REMARKS
CEDAR RAPIDS   RAIN     N/A N/A N/A MISG        N/A
CHARLES CITY * DRIZZLE   59  59 100 S5G12     29.92R
CLINTON *      CLOUDY    59  55  88 E9        29.98S
DECORAH *      CLOUDY    57  57 100 CALM      29.90F
DUBUQUE        CLOUDY    57  55  93 E6        29.91F
MONTICELLO *   CLOUDY    59  59 100 NE6G12    29.90F
OELWEIN *      CLOUDY    59  57  94 VRB3      29.91R
WATERLOO       TSTM      60  58  92 CALM      29.91R
$$

IAZ064-065-067-068-078-040800-
   EAST CENTRAL IOWA

CITY           SKY/WX    TMP DP  RH WIND       PRES   REMARKS
DAVENPORT      LGT RAIN  60  56  86 E9        29.97S
IOWA CITY      LGT RAIN  60  58  92 E6        29.95S
MT. PLEASANT * CLOUDY    68  55  64 CALM      29.93R
MUSCATINE *    RAIN      63  57  82 NE10      29.95F
QUAD CITIES    RAIN      61  57  87 NE5       29.97R
$$

IAZ062-063-075>077-085>089-095>099-040800-
   SOUTHEAST IOWA

CITY           SKY/WX    TMP DP  RH WIND       PRES   REMARKS
BURLINGTON     CLOUDY    68  56  65 S7        29.91S
FAIRFIELD *    MOCLDY    70  57  64 NE13      29.91R
FORT MADISON * CLOUDY    68  57  68 S8        29.91F
KEOKUK *       PTCLDY    70  57  64 S12       29.90F
OSKALOOSA *    LGT RAIN  64  55  72 E17       29.90S
CENTERVILLE *  CLEAR     66  61  82 S18       29.89F
OTTUMWA        LGT RAIN  68  59  73 NE7       29.90R
WASHINGTON *   LGT RAIN  61  61 100 E12       29.94F
$$

ABBREVIATIONS USED IN REMARKS
   TC - TEMPERATURES IN CELSIUS
  WCI - WIND CHILL INDEX
   HX - HEAT INDEX
  VSB - VISIBILITY
$$



USA.gov is the U.S. government's official web portal to all federal, state and local government web resources and services.